Find OneWeb SL0406

NORAD ID: 50486 Int'l Des: 2021-132 Owner: ONEWEBN Country: UK Constellation: oneweb operational
LEOCIRCULARPOLARONEWEB_TYPE

現在のビュー

3D地球を読み込み中...

About OneWeb SL0406

OneWeb SL0406 (NORAD 50486) is a oneweb constellation satellite launched Dec 27, 2021 by ONEWEBN of UK. It operates in LEO, CIRCULAR, POLAR, ONEWEB_TYPE orbit with a mass of 148.00 kg.

OneWeb SL0406について

説明を読み込み中...

次回通過

Passes for default location (London). Set your location on the main map for personalized predictions.

高度履歴

Loading altitude history...

軌道要素

1 50486U 21132T 26171.38609383 -.00000008 00000-0 -53236-4 0 9992
2 50486 87.9169 334.8194 0002279 84.1402 275.9990 13.18685501222045
Epoch: Jun 20, 2026 • Age: 21 hours

現在のステータス

高度 1215.9 km
速度 7.24 km/s
衛星直下点 -63.80°S, 151.44°E
打ち上げ日 Dec 27, 2021
運用期間 4.4 years
タイプ internet

技術仕様

分類 Payload
質量 148.00 kg
乾燥質量 140.00 kg
総質量 148.00 kg
長さ 1.30 m
直径 1.00 m
スパン 5.00 m
形状 Trapezoid+2 pan
製造者 ONEWUS
バスタイプ ARROW
フェーズステータス In Orbit
所有者/国 ONEWEBN/UK

Most Searched